STARLINK-34072 (64101 NORAD) Tracking and Keplerian Element Data

This shows tracking and keplerian element data for the satellite.

Feedback or suggestion? Click here.




ElementValue
Catalog64101
NameSTARLINK-34072
Epoch Orbit3361
Epoch Day353.57313222
Epoch Year2025
RAAN39.0923
Inclination53.1585
Eccentricity0.0001061
Argument of Perigee109.298
Mean Anonmoly250.8136
Mean Motion15.30184887
Decay Rate-1.874E-05
L11 64101U 25110F 25353.57313222 -.00001874 00000+0 -51201-4 0 9998
L22 64101 53.1585 39.0923 0001061 109.2980 250.8136 15.30184887 33617



Live tracking and technical data element details for STARLINK-34072 (NORAD 64101). STARLINK-34072 can be tracked NOW for your location showing map with azimuth and elevation plus other details from your city location.







IsCatalogInMostPopularTable: catalog: 64101, numindb: 1
Update: records affected: 1



GetName: 64101 STARLINK-34072

Hit Count: updated at: Mon, 09 Feb 2026 08:23:30 GMT